Home   Weather   Simi Valley   Past weeks

Flag for USA Past Weather in Simi Valley, California, USA — Yesterday and Last 2 Weeks

Now
93 °F

Sunny.


Feels Like: 93 °F
Forecast: 63 / 89 °F
Wind: 6 mph from North

Location: Van Nuys Airport

Current Time: Jul 27, 2017 at 1:55:22 pm

Latest Report: Jul 27, 2017 at 12:51 pm


Visibility: 10 mi

Pressure: 29.89 "Hg

Humidity: 33%

Dew Point: 60 °F

Location of Simi ValleyLocation

Past Weather in Simi Valley — Graph

°F

Simi Valley Temperature Yesterday

Maximum temperature yesterday: 91 °F (at 1:51 pm)
Minimum temperature yesterday: 66 °F (at 4:51 am)
Average temperature yesterday: 76 °F

High & Low Weather Summary for the Past Weeks

 TemperatureHumidityPressure
High95 °F (Jul 15, 1:51 pm)91% (Jul 22, 5:51 am)30.00 "Hg (Jul 22, 5:51 am)
Low65 °F (Jul 21, 4:51 am)19% (Jul 20, 4:51 pm)29.76 "Hg (Jul 23, 5:51 pm)
Average78 °F57%29.90 "Hg
* Reported Jul 12 11:51 am — Jul 27 11:51 am, Simi Valley. Weather by CustomWeather, © 2017

Note: Actual official high and low records may vary slightly from our data, if they occured in-between our weather recording intervals... More about our weather records

Advertising

Simi Valley Weather History for the Previous 24 Hours

Scroll right to see more
 ConditionsComfort  
Time TempWeatherWind HumidityBarometerVisibility
11:51 am
Thu, Jul 27
89 °FSunny.3 mph38%29.91 "Hg10 mi
10:51 am86 °FSunny.5 mph43%29.93 "Hg10 mi
9:51 am79 °FScattered clouds.3 mph54%29.93 "Hg10 mi
8:51 am74 °FScattered clouds.No wind64%29.94 "Hg10 mi
7:51 am70 °FSunny.No wind76%29.95 "Hg10 mi
6:51 am67 °FSunny.No wind85%29.95 "Hg10 mi
5:51 am67 °FPassing clouds.No wind81%29.95 "Hg10 mi
4:51 am67 °FClear.No wind85%29.94 "Hg10 mi
3:51 am67 °FClear.No wind85%29.93 "Hg10 mi
2:51 am67 °FClear.No wind85%29.94 "Hg10 mi
1:51 am67 °FClear.3 mph85%29.96 "Hg10 mi
12:51 am68 °FClear.No wind82%29.95 "Hg10 mi
11:51 pm
Wed, Jul 26
68 °FClear.No wind82%29.96 "Hg10 mi
10:51 pm68 °FClear.6 mph82%29.96 "Hg10 mi
9:51 pm70 °FClear.7 mph76%29.95 "Hg10 mi
8:51 pm72 °FClear.7 mph73%29.93 "Hg10 mi
7:51 pm77 °FSunny.8 mph62%29.90 "Hg10 mi
6:51 pm82 °FSunny.7 mph53%29.89 "Hg10 mi
5:51 pm85 °FSunny.7 mph46%29.88 "Hg10 mi
4:51 pm88 °FSunny.10 mph42%29.89 "Hg10 mi
3:51 pm91 °FSunny.9 mph37%29.90 "Hg10 mi
2:51 pm91 °FSunny.8 mph37%29.91 "Hg10 mi
1:51 pm91 °FSunny.7 mph37%29.93 "Hg10 mi
Weather by CustomWeather, © 2017

See weather overviewHow to use our weather pages